STARLINK AF (44264 NORAD) Tracking and Keplerian Element Data

This shows tracking and keplerian element data for the satellite.

Feedback or suggestion? Click here.




ElementValue
Catalog44264
NameSTARLINK AF
Epoch Orbit424
Epoch Day171.34138064
Epoch Year2019
RAAN49.7432
Inclination53.0029
Eccentricity0.00028
Argument of Perigee102.0963
Mean Anonmoly258.0339
Mean Motion15.05489473
Decay Rate-5.011E-05
L11 44264U 19029AF 19171.34138064 -.00005011 00000-0 -32575-3 0 9993
L22 44264 53.0029 49.7432 0002800 102.0963 258.0339 15.05489473 4247

Live tracking and technical data element details for STARLINK AF (NORAD 44264). STARLINK AF can be tracked NOW for your location showing map with azimuth and elevation plus other details from your city location.

Track the satellite on the map from your city or location and see movement details for azimuth, elevation, latitude, longitude, range, height, and movement on the map or in text.







IsCatalogInMostPopularTable: catalog: 44264, numindb: 27
Update: records affected: 1



GetName: 44264 STARLINK AF

Hit Count: updated at: Fri, 19 Jul 2019 08:40:57 GMT